Regional Weather Roundup
Issued by NWS Midland/Odessa, TX

Home | Current Version | Previous Version | Text Only | Print | Product List | Glossary On
Versions: 1 2 3 4 5 6 7 8 9 10 11 12 13 14 15 16 17 18 19 20 21 22 23 24 25 26 27 28 29 30 31 32 33 34 35 36 37 38 39 40 41 42 43 44 45 46 47 48 49 50
000
ASUS44 KMAF 250210
RWRMAF
MIDLAND AREA WEATHER ROUNDUP
NATIONAL WEATHER SERVICE MIDLAND TX
800 PM CST FRI NOV 24 2017

...IN SOUTHWEST TEXAS AND SOUTHEAST NEW MEXICO...

CITY           SKY/WX    TMP DP  RH WIND       PRES   REMARKS
ALPINE         CLEAR     62  24  22 SW10      30.05R
ANDREWS        FAIR      67  30  25 SW8       29.83S
ARTESIA        CLOUDY    64  28  25 W14       29.87R
BIG SPRING     CLEAR     62  32  32 S12       29.82S
CARLSBAD       CLEAR     67  29  24 W14       29.85R
DRYDEN           N/A     59  36  42 CALM      29.86R
FORT STOCKTON  CLEAR     65  31  28 SW13      29.88R
GUAD PASS      CLEAR     62  25  24 W22       30.04R
HOBBS          CLOUDY    59  28  31 NW8       29.86R
LAMESA         FAIR      63  32  31 SW15      29.81S
MARFA          CLEAR     52  22  30 CALM      30.04R
MIDLAND AIRPK  CLEAR     67  32  26 SW5       29.82S
MIDLAND INTL   CLEAR     66  30  26 SW9       29.82S
ODESSA         CLEAR     63  30  28 W6        29.84R
PECOS          CLEAR     64  27  24 SW6       29.85R
PRESIDIO       FAIR      66  27  23 N6        29.95R
SEMINOLE       CLEAR     63  29  28 W9        29.85R
SNYDER         CLEAR     62  32  33 SW8       29.77S
WINK           CLEAR     59  28  30 SW9       29.83R
$$
...OTHER STATIONS IN TEXAS...

CITY           SKY/WX    TMP DP  RH WIND       PRES   REMARKS
ABILENE        CLEAR     66  36  32 S14       29.76S
AMARILLO       CLEAR     60  29  30 CALM      29.80R
AUSTIN         CLOUDY    52  40  63 S3        29.87R
BROWNSVILLE    CLEAR     63  59  87 CALM      29.95R
CORPUS CHRISTI PTCLDY    63  52  67 SE9       29.90F
DALLAS FTW     PTCLDY    66  38  35 S14       29.79R
DEL RIO        CLEAR     65  42  43 SE9       29.85R
EL PASO        CLEAR     64  28  25 SE7       29.97R
HOUSTON INT    PTCLDY    60  47  61 S5        29.92S
LUBBOCK        PTCLDY    61  25  25 W8        29.78R
SAN ANGELO     CLEAR     65  34  31 S13       29.81S
SAN ANTONIO    CLOUDY    65  38  36 CALM      29.88S
WACO           CLEAR     63  41  44 S15       29.82S
WICHITA FALLS  MOCLDY    67  39  35 N22G31    29.83R
$$
...OTHER LOCATIONS IN NEW MEXICO...

CITY           SKY/WX    TMP DP  RH WIND       PRES   REMARKS
ALAMOGORDO     CLOUDY    54  25  32 E6        30.00S
ALBUQUERQUE    CLOUDY    56  23  27 E3        30.04R
CANNON AFB     CLOUDY    67  22  18 W13       29.86R
CLOVIS         CLOUDY    56  28  34 W8        29.85R
HOLLOMAN AFB   CLOUDY    52  28  40 E5        30.01R
ROSWELL        CLOUDY    68  24  19 W10       29.87R
RUIDOSO        CLOUDY    57  16  19 W10       30.11S
SANTA FE       CLOUDY    46  27  47 N9        30.06R
TRUTH OR CONSE CLEAR    N/A N/A N/A CALM      30.01R
TUCUMCARI      CLOUDY    65  26  23 W14       29.80R
$$




USA.gov is the U.S. government's official web portal to all federal, state and local government web resources and services.